Tracking 23611 objects as of 17-Sep-2021
HD Live streaming from Space Station
objects crossing your sky now
Track INSPIRATION-4

DELTA 1 DEB

Track DELTA 1 DEB now!
10-day predictions


NORAD ID: 13563
Int'l Code: 1978-026FA
Perigee: 800.5 km
Apogee: 863.1 km
Inclination: 98.9 °
Period: 101.4 minutes
Semi major axis: 7202 km
RCS: 0.058 m2 (small)
Launch date: March 5, 1978
Source: United States (US)
Launch site: AIR FORCE WESTERN TEST RANGE (AFWTR)

Note: This is SATELLITE DEBRIS
aabbcc
Your satellite tracking list
Your tracking list is empty




NASA's NSSDC Master Catalog

Two Line Element Set (TLE):
1 13563U 78026FA  21260.50345414  .00000075  00000-0  55771-4 0  9999
2 13563  98.8503 249.1056 0043435 252.5144 259.3926 14.20208782 36753
Source of the keplerian elements: AFSPC